TIME,DELAY(SENSOR),PRES,OXYGEN,RAWTEMP,T(OPTODE),TCPHASE,FLUOR,BETA(BETA700),BETA(BETA412),BETA(BETA440),CDOM,C(CSC),ED(ED411.90),ED(ED443.80),ED(ED489.40),ED(ED554.70),LU(LU412.20),LU(LU443.80),LU(LU489.40),LU(LU555.00),COMP,TILTX,TILTY,CHECK
1344117052,5803,835.2999877929688000,170.6717071533203000,385.4614868164062500,11.0454301834106450,37.9433097839355500,51,99,98,80,79,14080,2146959113,2147514505,2147284955,2147499291,2147090697,2146927616,2147699154,2147119460,1288,-2,8,33426
1344120648,5806,952.7500000000000000,178.5294036865234400,469.0396118164062500,8.4869384765625000,38.7668800354003900,53,104,98,79,80,14068,2146957284,2147516873,2147293732,2147517814,2147091922,2146923712,2147715913,2147122112,166,-2,8,7359
1344124248,5804,981.3400268554688000,190.3545074462890600,486.4578857421875000,7.9490208625793460,38.2744293212890600,52,102,98,79,81,14067,2146958043,2147514240,2147293083,2147519277,2147093193,2146916379,2147721152,2147120146,3171,-2,8,56182
1344127848,5807,975.8599853515625000,192.1076049804687500,490.4164123535156000,7.8265109062194820,38.2298393249511700,52,104,99,78,81,14065,2146960685,2147515318,2147298112,2147517357,2147090285,2146922276,2147717842,2147120758,722,-1,8,61857
1344131448,5802,979.5700073242188000,192.8885955810547000,492.1825866699219000,7.7718200683593750,38.2102699279785160,52,105,100,80,81,14064,2146960448,2147515958,2147296658,2147522797,2147093586,2146922788,2147718976,2147120996,3500,-1,8,41913
1344135048,5808,984.4600219726562000,195.4617004394531200,493.7232055664062500,7.7240948677062990,38.0726394653320300,52,106,98,79,81,14060,2146955858,2147517833,2147298788,2147520475,2147091465,2146920978,2147716635,2147116416,42,-1,8,47571
1344138648,5805,983.7000122070312000,195.6614990234375000,494.5226135253906000,7.6993269920349120,38.0749397277832000,52,106,100,79,82,14059,2146960402,2147512923,2147295579,2147521984,2147090532,2146925860,2147719954,2147120676,3461,-1,8,57111
1344142248,5805,988.4699707031250000,195.8392028808593800,494.6972045898437500,7.6939139366149900,38.0664787292480500,52,105,100,79,82,14058,2146960283,2147519451,2147297645,2147519113,2147091053,2146925458,2147716205,2147118052,3545,-2,8,28154
1344145848,5807,990.1500244140625000,195.6000976562500000,495.7549133300781000,7.6611351966857910,38.0994415283203100,53,103,99,79,81,14060,2146958363,2147514642,2147296640,2147516553,2147091776,2146926884,2147716571,2147117257,3421,-2,8,7446
1344149448,5804,995.4400024414062000,196.8681945800781200,495.8240966796875000,7.6589908599853520,38.0214614868164060,52,106,99,79,81,14058,2146962368,2147516937,2147296923,2147522578,2147091584,2146925348,2147715200,2147116836,3298,-2,8,54606
1344153048,5804,999.4799804687500000,195.2496032714843800,494.5426025390625000,7.6987061500549320,38.1005897521972660,52,101,99,80,82,14059,2146958281,2147518646,2147293229,2147518162,2147093184,2146925312,2147719360,2147119689,3244,-1,8,27567
1344156648,5805,998.2899780273438000,193.9922943115234400,494.2748107910156000,7.7070040702819820,38.1761512756347660,53,108,100,79,81,14061,2146959296,2147517613,2147295424,2147520822,2147092077,2146921563,2147718427,2147120009,2932,-2,8,33261
1344160248,5805,1000.2700195312500000,193.8979034423828000,494.3096008300781000,7.7059249877929690,38.1826591491699200,53,102,99,81,81,14057,2146959378,2147516013,2147291766,2147522422,2147089682,2146921746,2147719067,2147118720,3242,-2,8,26458
1344163848,5807,995.1300048828125000,194.1748046875000000,494.5790100097656000,7.6975769996643070,38.1698303222656250,51,102,99,78,81,14055,2146958957,2147517394,2147295524,2147519588,2147092278,2146917851,2147718939,2147118582,3153,-2,8,15266
1344167448,5804,995.0399780273438000,194.3088989257812500,496.4361877441406000,7.6400160789489750,38.1935882568359400,53,116,99,79,80,14055,2146957275,2147517741,2147296411,2147520841,2147091300,2146922477,2147717851,2147119286,255,-1,8,9542
1344171048,5808,992.2199707031250000,196.9358062744140600,497.3558959960937500,7.6114997863769530,38.0440483093261700,53,100,100,80,82,14055,2146961545,2147517056,2147295369,2147521673,2147091757,2146920694,2147716306,2147118308,428,-2,8,51297
1344174648,5805,993.4000244140625000,198.0886993408203000,498.0621948242187500,7.5896019935607910,37.9831085205078100,53,102,100,79,81,14049,2146959963,2147519332,2147299236,2147518290,2147090916,2146923547,2147718061,2147119570,797,-2,8,22028
1344178248,5804,991.6500244140625000,199.0213928222656200,498.8920898437500000,7.5638608932495120,37.9406585693359400,52,104,101,79,81,14050,2146959442,2147513133,2147293558,2147519305,2147092388,2146926884,2147717440,2147121133,93,-2,8,46980
1344181848,5807,991.9099731445312000,199.0272064208984400,499.3725891113281000,7.5489578247070310,37.9484901428222660,52,102,100,79,81,14052,2146958016,2147515876,2147296000,2147519890,2147093211,2146920283,2147719579,2147116836,508,-2,8,4094
1344185448,5804,993.5800170898438000,200.3065948486328000,499.1668090820312500,7.5553398132324220,37.8652992248535160,52,103,99,78,81,14046,2146958610,2147516635,2147294372,2147519817,2147087140,2146917668,2147714953,2147117641,3065,-2,8,7665
1344189048,5806,994.5599975585938000,200.1743011474609400,499.9898071289062500,7.5298099517822270,37.8881111145019500,53,103,248,78,81,14047,2146958884,2147518976,2147297673,2147520091,2147090770,2146916132,2147720868,2147117485,3405,-1,8,28618
1344192648,5806,997.5000000000000000,200.0509033203125000,499.6126098632812500,7.5415120124816895,37.8891716003418000,52,103,100,80,81,13992,2146961508,2147519286,2147293796,2147518208,2147093522,2146922678,2147718217,2147115382,140,-2,8,13213
1344196248,5806,999.5000000000000000,200.4082031250000000,498.6329040527344000,7.5719008445739750,37.8504791259765600,53,111,100,79,81,13990,2146956580,2147516736,2147293467,2147520566,2147088420,2146919405,2147716736,2147117988,150,-2,8,19833
1344199848,5808,998.4600219726562000,199.5809020996093800,498.4112854003906000,7.5787730216979980,37.8974800109863300,53,105,157,80,81,13989,2146960722,2147514395,2147295661,2147521261,2147090697,2146923346,2147719286,2147120969,233,-1,8,6603
1344203448,5807,1000.2500000000000000,199.7747955322265600,498.1765136718750000,7.5860538482666020,37.8811798095703100,53,102,109,79,80,13991,2146958235,2147515666,2147295195,2147515529,2147091757,2146927753,2147719734,2147118253,391,-2,8,61855
1344207048,5806,1000.9500122070312000,199.6667022705078000,498.0275878906250000,7.5906739234924320,37.8844795227050800,52,106,105,80,81,13986,2146958180,2147517476,2147296978,2147521060,2147091218,2146921261,2147716708,2147117458,434,-2,8,23359
1344210648,5806,997.2600097656250000,200.2604980468750000,498.9656982421875000,7.5615777969360350,37.8646507263183600,52,114,99,79,80,13989,2146957760,2147515721,2147295990,2147519670,2147089910,2146917531,2147718857,2147118528,2850,-1,8,59800
1344214248,5807,997.1199951171875000,200.9170074462890600,499.7737121582031000,7.5365128517150880,37.8389091491699200,52,103,99,78,82,13985,2146957988,2147520768,2147295259,2147522953,2147089097,2146923803,2147712768,2147115026,411,-2,8,24739
1344217848,5803,994.4600219726562000,201.7106018066406200,500.9754943847656000,7.4992260932922360,37.8110389709472660,51,103,100,78,81,13987,2146959341,2147515081,2147293385,2147519250,2147092626,2146922962,2147719058,2147117440,3487,-1,8,47203
1344221448,5807,993.0300292968750000,202.0034942626953000,500.1207885742187500,7.5257449150085450,37.7782287597656250,52,104,99,80,82,13983,2146957101,2147517632,2147293412,2147520521,2147094418,2146923108,2147717906,2147117330,2862,-1,8,7777
1344225048,5806,988.4600219726562000,201.7566070556640600,501.0599060058594000,7.4966077804565430,37.8100318908691400,51,103,99,78,83,13982,2146959049,2147514989,2147295936,2147520036,2147096329,2146925613,2147714523,2147118957,381,-1,8,19376
1344228648,5808,994.9899902343750000,202.7115020751953000,500.9118957519531000,7.5012011528015140,37.7486000061035160,52,106,99,79,81,13982,2146960411,2147514331,2147295378,2147520786,2147092288,2146920256,2147719789,2147118308,72,-2,8,23976
1344232248,5807,999.6599731445312000,201.9329071044922000,500.5981140136719000,7.5109391212463380,37.7906608581543000,52,103,100,79,80,13979,2146957056,2147515145,2147299428,2147519661,2147093321,2146919634,2147716580,2147119744,49,-1,8,10125
1344235848,5807,1003.0999755859375000,199.5149993896484400,500.0871887207031000,7.5267868041992190,37.9302101135253900,52,106,100,79,82,13978,2146957723,2147519698,2147295012,2147519131,2147092068,2146920987,2147719872,2147119222,271,-1,8,54905
1344239448,5808,1001.0000000000000000,199.3753967285156200,499.9985046386719000,7.5295391082763670,37.9370803833007800,52,106,101,80,81,13977,2146958528,2147515547,2147296603,2147523602,2147092745,2146921700,2147717778,2147117458,423,-2,8,56068
1344243048,5804,999.8400268554688000,198.9037933349609400,500.2507934570312500,7.5217127799987790,37.9711189270019500,52,102,99,79,81,13977,2146961993,2147515894,2147296192,2147522898,2147093056,2146924461,2147719680,2147118729,3473,-2,8,15449
1344246648,5808,998.2700195312500000,199.9537963867187500,500.7408142089844000,7.5065097808837890,37.9151000976562500,52,104,99,79,81,13976,2146958747,2147517110,2147296530,2147517394,2147090898,2146925275,2147720182,2147117668,256,-1,8,10434
1344250248,5805,999.7199707031250000,202.3665008544922000,500.2110900878906000,7.5229449272155760,37.7570304870605500,53,103,101,80,81,13976,2146957065,2147513755,2147294144,2147524105,2147093403,2146924032,2147714715,2147120585,3573,-2,8,11878
1344253848,5804,998.2800292968750000,200.9160003662109400,500.8431091308594000,7.5033340454101560,37.8575096130371100,52,105,99,79,81,13972,2146957814,2147514633,2147297188,2147521929,2147089472,2146917933,2147717056,2147118299,3173,-1,8,34405
1344257448,5804,992.6500244140625000,202.9779968261718800,501.0390930175781000,7.4972538948059080,37.7344017028808600,52,104,98,80,81,13974,2146959917,2147513517,2147298806,2147521499,2147092772,2146922770,2147717915,2147117010,3316,-2,8,30530
1344260156,5807,996.9500122070312000,204.8441925048828000,501.4107971191406000,7.4857192039489750,37.6282997131347660,52,106,100,79,81,13989,2146958116,2147515245,2147296137,2147519981,2147091446,2146918290,2147719579,2147117558,412,-2,8,22358
